Detroit Lakes, MN

12:02 AM CST on February 12, 2016 (GMT -0600)
Detroit Lakes

Weather History for KDTL - March, 2013

Change the Weather History Date:

Friday, March 1, 2013

  Actual Average Record
Temperature  
Mean Temperature 19 °F -  
Max Temperature 26 °F 29 °F 51 °F (1990)
Min Temperature 8 °F 8 °F -38 °F (1962)
Degree Days  
Heating Degree Days 46    
Moisture  
Dew Point 14 °F    
Average Humidity 80    
Maximum Humidity 100    
Minimum Humidity 55    
Precipitation  
Precipitation 0.00 in - - ()
Sea Level Pressure  
Sea Level Pressure 30.34 in    
Wind  
Wind Speed 2 mph (NNW)    
Max Wind Speed 9 mph    
Max Gust Speed -    
Visibility 10 miles    
Events      
Averages and records for this station are not official NWS values.
T = Trace of Precipitation, MM = Missing Value Source: NWS Daily Summary

Daily Weather History Graph

Daily Weather History Graph

Search for Another Location

Airport or City:

Trip Planner

Search our weather history database for the weather conditions in past years. The results will help you decide how hot, cold, wet, or windy it might be!

Date:

Astronomy

Mar. 01, 2013 Rise Set
Actual Time 7:02 AM CST 6:09 PM CST
Civil Twilight 6:32 AM CST 6:40 PM CST
Nautical Twilight 5:57 AM CST 7:15 PM CST
Astronomical Twilight 5:22 AM CST 7:50 PM CST
Moon 11:05 PM CST (3/1) 8:31 AM CST (3/1)
Length of Visible Light 12h 07m
Length of Day
11h 06m
Waning Gibbous, 83% of the Moon is Illuminated
Mar 1
Waning Gibbous
Mar 4
Last Quarter
Mar 11
New
Mar 19
First Quarter
Mar 27
Full

Hourly Weather History & Observations

Time (CST) Temp. Windchill Dew Point Humidity Pressure Visibility Wind Dir Wind Speed Gust Speed Precip Events Conditions
12:15 AM 15.8 °F - 14.0 °F 93% 30.26 in 10.0 mi Calm Calm - N/A   Clear
12:35 AM 17.6 °F - 14.0 °F 86% 30.27 in 10.0 mi Calm Calm - N/A   Clear
12:56 AM 17.6 °F 12.3 °F 14.0 °F 86% 30.27 in 10.0 mi NNW 3.5 mph - N/A   Scattered Clouds
1:15 AM 19.4 °F 14.3 °F 14.0 °F 80% 30.27 in 10.0 mi NE 3.5 mph - N/A   Scattered Clouds
1:35 AM 17.6 °F - 14.0 °F 86% 30.28 in 10.0 mi Calm Calm - N/A   Clear
1:56 AM 19.4 °F 14.3 °F 14.0 °F 80% 30.28 in 10.0 mi ENE 3.5 mph - N/A   Clear
2:15 AM 19.4 °F - 14.0 °F 80% 30.28 in 10.0 mi Calm Calm - N/A   Clear
2:35 AM 19.4 °F 14.3 °F 14.0 °F 80% 30.29 in 10.0 mi ENE 3.5 mph - N/A   Clear
2:56 AM 17.6 °F 10.7 °F 14.0 °F 86% 30.29 in 10.0 mi ENE 4.6 mph - N/A   Clear
3:55 AM 19.4 °F - 14.0 °F 80% 30.30 in 10.0 mi Calm Calm - N/A   Clear
4:15 AM 19.4 °F 14.3 °F 14.0 °F 80% 30.30 in 10.0 mi East 3.5 mph - N/A   Clear
4:36 AM 19.4 °F 14.3 °F 14.0 °F 80% 30.30 in 10.0 mi East 3.5 mph - N/A   Clear
4:55 AM 19.4 °F - 12.2 °F 74% 30.31 in 10.0 mi Calm Calm - N/A   Clear
5:16 AM 17.6 °F 12.3 °F 12.2 °F 79% 30.31 in 10.0 mi East 3.5 mph - N/A   Clear
5:36 AM 17.6 °F 12.3 °F 12.2 °F 79% 30.31 in 10.0 mi East 3.5 mph - N/A   Clear
6:16 AM 17.6 °F - 12.2 °F 79% 30.32 in 10.0 mi Calm Calm - N/A   Clear
6:36 AM 14.0 °F - 10.4 °F 86% 30.33 in 10.0 mi Calm Calm - N/A   Clear
6:55 AM 14.0 °F - 12.2 °F 93% 30.33 in 10.0 mi Calm Calm - N/A   Clear
7:16 AM 14.0 °F - 12.2 °F 93% 30.34 in 10.0 mi Calm Calm - N/A   Clear
7:36 AM 15.8 °F - 12.2 °F 86% 30.34 in 10.0 mi Calm Calm - N/A   Clear
7:55 AM 17.6 °F - 12.2 °F 79% 30.35 in 10.0 mi Calm Calm - N/A   Clear
8:16 AM 15.8 °F - 12.2 °F 86% 30.35 in 10.0 mi Calm Calm - N/A   Clear
8:36 AM 17.6 °F - 12.2 °F 79% 30.35 in 10.0 mi Calm Calm - N/A   Clear
8:55 AM 17.6 °F - 12.2 °F 79% 30.35 in 10.0 mi Calm Calm - N/A   Clear
9:16 AM 17.6 °F - 12.2 °F 79% 30.36 in 10.0 mi Calm Calm - N/A   Clear
9:36 AM 19.4 °F - 14.0 °F 80% 30.36 in 10.0 mi Calm Calm - N/A   Clear
9:55 AM 21.2 °F - 14.0 °F 74% 30.36 in 10.0 mi Calm Calm - N/A   Clear
10:16 AM 23.0 °F 18.4 °F 14.0 °F 68% 30.37 in 10.0 mi South 3.5 mph - N/A   Clear
10:35 AM 23.0 °F 18.4 °F 12.2 °F 63% 30.37 in 10.0 mi South 3.5 mph - N/A   Clear
10:56 AM 24.8 °F - 14.0 °F 64% 30.37 in 10.0 mi Calm Calm - N/A   Clear
11:15 AM 26.6 °F - 12.2 °F 55% 30.37 in 10.0 mi Calm Calm - N/A   Clear
11:35 AM 26.6 °F - 12.2 °F 55% 30.37 in 10.0 mi Calm Calm - N/A   Clear
11:56 AM 26.6 °F - 12.2 °F 55% 30.37 in 10.0 mi Calm Calm - N/A   Clear
12:15 PM 26.6 °F - 14.0 °F 59% 30.37 in 10.0 mi Calm Calm - N/A   Clear
12:35 PM 26.6 °F 22.6 °F 17.6 °F 69% 30.37 in 10.0 mi NNW 3.5 mph - N/A   Clear
12:56 PM 26.6 °F 20.0 °F 19.4 °F 74% 30.37 in 10.0 mi NNW 5.8 mph - N/A   Clear
1:15 PM 26.6 °F 19.1 °F 17.6 °F 69% 30.36 in 10.0 mi NNW 6.9 mph - N/A   Clear
1:35 PM 26.6 °F 19.1 °F 17.6 °F 69% 30.36 in 10.0 mi NNW 6.9 mph - N/A   Clear
1:56 PM 26.6 °F 18.2 °F 19.4 °F 74% 30.35 in 10.0 mi NNW 8.1 mph - N/A   Clear
2:15 PM 26.6 °F 18.2 °F 19.4 °F 74% 30.34 in 10.0 mi NNW 8.1 mph - N/A   Clear
2:35 PM 26.6 °F 17.5 °F 17.6 °F 69% 30.34 in 10.0 mi NNW 9.2 mph - N/A   Clear
3:15 PM 26.6 °F 18.2 °F 19.4 °F 74% 30.34 in 10.0 mi NNW 8.1 mph - N/A   Clear
3:35 PM 26.6 °F 18.2 °F 19.4 °F 74% 30.34 in 10.0 mi NW 8.1 mph - N/A   Clear
3:56 PM 26.6 °F 19.1 °F 19.4 °F 74% 30.34 in 10.0 mi NW 6.9 mph - N/A   Clear
4:15 PM 26.6 °F 20.0 °F 19.4 °F 74% 30.34 in 10.0 mi NNW 5.8 mph - N/A   Clear
4:35 PM 26.6 °F 19.1 °F 19.4 °F 74% 30.34 in 10.0 mi NW 6.9 mph - N/A   Clear
4:56 PM 24.8 °F 16.1 °F 19.4 °F 80% 30.35 in 10.0 mi NW 8.1 mph - N/A   Clear
5:15 PM 24.8 °F 16.9 °F 19.4 °F 80% 30.36 in 10.0 mi NNW 6.9 mph - N/A   Clear
5:35 PM 23.0 °F 13.9 °F 17.6 °F 80% 30.36 in 10.0 mi NW 8.1 mph - N/A   Clear
5:56 PM 23.0 °F 13.9 °F 17.6 °F 80% 30.37 in 10.0 mi NW 8.1 mph - N/A   Clear
6:15 PM 21.2 °F 13.6 °F 15.8 °F 80% 30.37 in 10.0 mi NNW 5.8 mph - N/A   Clear
6:35 PM 19.4 °F 14.3 °F 15.8 °F 86% 30.37 in 10.0 mi NNW 3.5 mph - N/A   Clear
6:56 PM 19.4 °F - 15.8 °F 86% 30.36 in 10.0 mi Calm Calm - N/A   Clear
7:15 PM 19.4 °F 14.3 °F 15.8 °F 86% 30.36 in 10.0 mi NNW 3.5 mph - N/A   Clear
7:35 PM 17.6 °F 12.3 °F 14.0 °F 86% 30.36 in 10.0 mi NW 3.5 mph - N/A   Clear
7:56 PM 17.6 °F 10.7 °F 14.0 °F 86% 30.36 in 10.0 mi NNW 4.6 mph - N/A   Clear
8:16 PM 17.6 °F 12.3 °F 15.8 °F 93% 30.36 in 10.0 mi NW 3.5 mph - N/A   Clear
8:35 PM 17.6 °F - 14.0 °F 86% 30.35 in 10.0 mi Calm Calm - N/A   Clear
8:56 PM 14.0 °F - 14.0 °F 100% 30.35 in 10.0 mi Calm Calm - N/A   Clear
9:16 PM 15.8 °F - 14.0 °F 93% 30.35 in 10.0 mi Calm Calm - N/A   Clear
9:35 PM 12.2 °F - 12.2 °F 100% 30.35 in 10.0 mi Calm Calm - N/A   Clear
9:56 PM 12.2 °F - 12.2 °F 100% 30.35 in 10.0 mi Calm Calm - N/A   Clear
10:16 PM 14.0 °F - 12.2 °F 93% 30.35 in 10.0 mi Calm Calm - N/A   Clear
10:35 PM 14.0 °F - 12.2 °F 93% 30.33 in 10.0 mi Calm Calm - N/A   Clear
10:56 PM 12.2 °F - 10.4 °F 92% 30.33 in 7.0 mi Calm Calm - N/A   Clear
11:16 PM 12.2 °F - 10.4 °F 92% 30.32 in 7.0 mi Calm Calm - N/A   Clear
11:35 PM 12.2 °F - 10.4 °F 92% 30.32 in 7.0 mi Calm Calm - N/A   Clear
11:56 PM 8.6 °F - 8.6 °F 100% 30.32 in 10.0 mi Calm Calm - N/A   Clear